Regional Weather Roundup
Issued by NWS

Home | Current Version | Previous Version | Graphics & Text | Print | Product List | Glossary On
Versions: 1 2 3 4 5 6 7 8 9 10 11 12 13 14 15 16 17 18 19 20 21 22 23 24 25 26 27 28 29 30 31 32 33 34 35 36 37 38 39 40 41 42 43 44 45 46 47 48 49 50
000
ASUS45 KTFX 201419
RWRMT
MONTANA HOURLY WEATHER ROUNDUP
NATIONAL WEATHER SERVICE GREAT FALLS MT
819 AM MDT WED AUG 20 2014

NOTE: "FAIR" INDICATES FEW OR NO CLOUDS BELOW 12000 FEET WITH NO
SIGNIFICANT WEATHER AND/OR OBSTRUCTIONS TO VISIBILITY.

* THESE STATIONS ARE NOT UNDER NWS QUALITY CONTROL. THEY DO NOT
   REPORT WEATHER SUCH AS PRECIPITATION OR FOG.

MTZ001>007-043-201500-
WEST OF THE DIVIDE
CITY           SKY/WX    TMP DP  RH WIND       PRES   REMARKS
KALISPELL      CLOUDY    57  55  93 E7        29.86R
MISSOULA       PTSUNNY   55  52  90 N3        29.89R
BUTTE          PTCLDY    48  43  83 CALM      29.96S
MULLAN PASS    PTSUNNY   52  46  80 S5        29.95R
* ESSEX        N/A       53  51  93 NW1        N/A
* LINCOLN      N/A       49  46  89 S2         N/A
* LOOKOUT PASS N/A       51  51 100 SE4        N/A
* POLSON       N/A       55  55 100 N2         N/A
* RONAN APT    CLOUDY    57  54  90 N/A        N/A
* SEELEY LAKE  N/A       46  45  96 N/A        N/A
* THOMP F APT  PTSUNNY   49  45  86 NE2        N/A
* YAAK HILL    N/A       56  53  90 SE1        N/A
$$

MTZ008-052>055-201500-
SOUTHWEST MONTANA
CITY           SKY/WX    TMP DP  RH WIND       PRES   REMARKS
BOZEMAN        PTSUNNY   55  46  72 E5        29.91R
DILLON         PTCLDY    54  48  80 SW3       29.94R
W YELLOWSTONE  FOG       45  45 100 NE5       30.07R VSB 1/2
* THREE FORKS  PTSUNNY   57  57 100 N/A        N/A
* BOULDER HILL N/A       58  40  51 S2         N/A
* RAYNOLDS PAS N/A       47  28  48 SE12       N/A
* WHITEHALL    N/A       54  48  80 N3         N/A
* WISE RIVER   N/A       43  40  89 NW3        N/A
$$

MTZ009>010-012-014-046-048-049-054-201500-
EAST SLOPES AND CENTRAL MONTANA
CITY           SKY/WX    TMP DP  RH WIND       PRES   REMARKS
CUT BANK       PTCLDY    55  52  90 N7        29.84R
GREAT FALLS    CLOUDY    61  54  78 SE7       29.81F
HELENA         PTSUNNY   64  48  56 W5        29.88R
MALMSTROM AFB  CLOUDY    57  52  83 SE5       29.83F
* CONRAD       PTSUNNY   57  55  93 W7         N/A
* DEARBORN     N/A       60  47  62 S2         N/A
* EAST GLACIER N/A       57  45  64 W15G24     N/A
* MONARCH      N/A       54  40  59 S6         N/A
* PENDROY      N/A       59  50  72 SW4        N/A
* ROGERS PASS  N/A       54  42  64 NW4        N/A
* SAINT MARY   N/A       60  45  58 S5G14      N/A
* SWEET GRASS  N/A       54  54 100 NW6        N/A
* WHITE SULPH  N/A       58  45  62 NE4        N/A
$$

MTZ011-013-016-021-035-040-045-047-050-051-201500-
NORTH CENTRAL MONTANA
CITY           SKY/WX    TMP DP  RH WIND       PRES   REMARKS
HAVRE          CLOUDY    59  55  87 SW7       29.80R
LEWISTOWN      CLOUDY    63  46  54 SW8       29.85R
* CHINOOK      CLOUDY    61  55  81 W8        29.79R
* FORT BENTON  PTSUNNY   57  48  72 W5        29.82R
* CHESTER      N/A       55  52  90 NE1        N/A
* DENTON       N/A       62  47  58 SW3        N/A
* GEYSER       N/A       61  47  60 W11G17     N/A
* JUDITH GAP   N/A       61  47  60 NW8        N/A
* LOMA         N/A       58  51  78 W4G9       N/A
$$

MTZ017>020-022>027-061-062-201500-
NORTHEAST MONTANA
CITY           SKY/WX    TMP DP  RH WIND       PRES   REMARKS
GLASGOW        PTSUNNY   66  55  68 W8        29.66R
GLENDIVE       CLOUDY    72  59  64 S7        29.67R
JORDAN         CLOUDY    68  54  61 W9        29.70R
SIDNEY         CLOUDY    70  63  79 CALM      29.66R
WOLF POINT     PTSUNNY   70  54  57 CALM      29.62R
* BEAVER HILL  N/A       74  56  54 S12G20     N/A
* CIRCLE       N/A       65  55  70 N/A        N/A
* LINDSAY DVD  N/A       71  49  46 SW11       N/A
* SACO         N/A       64  60  87 W12        N/A
$$

MTZ028>042-056>058-201500-
SOUTHCENTRAL AND SOUTHEAST MONTANA
CITY           SKY/WX    TMP DP  RH WIND       PRES   REMARKS
BAKER          CLOUDY    72  61  68 SE7G16    29.71R
BILLINGS       LGT RAIN  70  46  42 NW7       29.82R
LIVINGSTON     CLOUDY    59  45  60 NW16      29.88R
MILES CITY     LGT RAIN  72  46  40 SW16G25   29.72R
* LAUREL APT   CLOUDY    66  43  43 N/A        N/A
* ROUNDUP APT  CLOUDY    66  45  47 SW5        N/A
* ALZADA       N/A       72  55  55 SE4        N/A
* HYSHAM       N/A       67  42  40 W6         N/A
* LAME DEER    N/A       63  49  60 N/A        N/A
* REED POINT   N/A       66  48  52 SW6        N/A
* ROSCOE HILL  N/A       63  38  40 N/A        N/A
$$

REGIONAL REPORTS...DAKOTAS
CITY           SKY/WX    TMP DP  RH WIND       PRES   REMARKS
WILLISTON      TSTM      68  64  87 SW3       29.65R
DICKINSON      CLOUDY    70  63  79 S9        29.67S
BEACH          N/A       73  57  57 S10       29.67F
CROSBY         SUNNY     64  64 100 SE9       29.64R
TIOGA          TSTM      70  70 100 CALM      29.70R
WATFORD CITY   SUNNY     73  63  71 S6        29.63R
BISMARCK       PTSUNNY   70  64  81 SE12      29.72S
GRAND FORKS    PTCLDY    70  64  81 SE8       29.78S
FARGO          SUNNY     72  63  73 SE8       29.79S
BUFFALO SD     CLOUDY    70  61  73 SE6       29.65F
RAPID CITY     CLOUDY    66  59  78 NW5       29.74S
$$

REGIONAL REPORTS...WYOMING/IDAHO/WASHINGTON
CITY           SKY/WX    TMP DP  RH WIND       PRES   REMARKS
GILLETTE       PTCLDY    72  45  38 W15       29.80R
SHERIDAN       CLOUDY    68  46  45 NW9       29.82R
CODY           PTSUNNY   66  45  47 W6        29.91R
YELLOWSTONE LA PTSUNNY   45  43  93 CALM      30.14R
SALMON         SUNNY     54  52  93 CALM      29.93R
MULLAN PASS    PTSUNNY   52  46  80 S5        29.95S
SAND POINT     PTCLDY    55  55 100 CALM      29.81R
SPOKANE        CLOUDY    64  54  70 SW15      29.77R
$$

REGIONAL REPORTS...ALBERTA
CITY           SKY/WX    TMP DP  RH WIND       PRES   REMARKS
CALGARY        CLOUDY    54  48  80 N18       29.87R
LETHBRIDGE     FOG       54  54 100 SW6       29.83R
MEDICINE HAT   PTSUNNY   57  55  93 SW5       29.78S
EDMONTON       LGT RAIN  52  50  93 W8        29.86R
WATERTON GATE  N/A       52  50  93 NE6        N/A
CARDSTON       N/A       52  50  93 SW5        N/A
MILK RIVER     N/A       55  54  96 NW3        N/A
$$

REGIONAL REPORTS...SASKATCHEWAN
CITY           SKY/WX    TMP DP  RH WIND       PRES   REMARKS
SWIFT CURRENT  CLOUDY    61  59  93 W12       29.73R
MOOSE JAW      FOG      N/A N/A N/A NW12G17    N/A
REGINA         PTSUNNY   64  59  84 E5        29.63R
VAL MARIE      N/A       59  55  87 N13        N/A
ASSINIBOIA     N/A       61  59  93 W14        N/A
CORONACH       N/A       61  59  93 NW9        N/A

$$



USA.gov is the U.S. government's official web portal to all federal, state and local government web resources and services.